Date String (YYYY-MM-DD hh:mm:ss) UTC,Instrument flags,absolute air pressure of the measurement (hPa),sample flow rate (lpm),inlet stack bypass flow (lpm),air temperature of the measurement (°C),ambient temperature measured by the external sensor (°C),aerosol sample conditioner tube jacket temperature (°C),OPC LED temperature (°C),internal box temperature (°C),relative humidity of the measurement (%),span deviation,mass concentration of particles derived from Lorenz-Mie calculation of OPC scattering (μg/m³),mass concentration of particles derived from Lorenz-Mie calculation of OPC scattering (μg/m³),mass concentration of particles derived from Lorenz-Mie calculation of OPC scattering (μg/m³)
DateTimeUTC,F1_M11,P_M11,Q1_M11,Q2_M11,T1_M11,T2_M11,T3_M11,T4_M11,T5_M11,U1_M11,ZSPAN_M11,X0_M11,X2_M11,X1_M11
2024-02-13 01:00:00,SystemResetWarning,0825.1,5.01,000.00,021.4,020.7,000.0,029.7,023.1,13.2,0000.0,0000.78,0000.36,0000.29
2024-02-13 01:01:00,SystemResetWarning,0825.2,5.00,000.00,021.4,020.7,000.0,029.8,023.1,13.0,0000.0,0001.55,0000.38,0000.30
2024-02-13 01:02:00,SystemResetWarning,0825.2,5.00,000.00,021.4,020.7,000.0,029.7,023.1,13.2,0000.0,0001.64,0000.41,0000.30
2024-02-13 01:03:00,SystemResetWarning,0825.2,4.99,000.00,021.4,020.7,000.0,029.7,023.1,13.7,0000.0,0001.64,0000.41,0000.30
2024-02-13 01:04:00,SystemResetWarning,0825.2,4.99,000.00,021.3,020.7,000.0,029.7,023.1,14.1,0000.0,0001.60,0000.39,0000.30
2024-02-13 01:05:00,SystemResetWarning,0825.2,5.00,000.00,021.4,020.7,000.0,029.7,023.1,14.1,0000.0,0001.65,0000.42,0000.31
2024-02-13 01:06:00,SystemResetWarning,0825.2,5.00,000.00,021.4,020.7,000.0,029.7,023.1,13.7,0000.0,0001.65,0000.43,0000.31
2024-02-13 01:07:00,SystemResetWarning,0825.3,5.01,000.00,021.4,020.7,000.0,029.7,023.2,13.9,0000.0,0001.62,0000.44,0000.31
2024-02-13 01:08:00,SystemResetWarning,0825.2,5.01,000.00,021.4,020.7,000.0,029.7,023.2,13.7,0000.0,0001.89,0000.47,0000.31
2024-02-13 01:09:00,SystemResetWarning,0825.2,5.00,000.00,021.4,020.7,000.0,029.7,023.2,13.4,0000.0,0001.89,0000.47,0000.32
2024-02-13 01:10:00,SystemResetWarning,0825.2,4.99,000.00,021.4,020.8,000.0,029.8,023.2,13.3,0000.0,0002.13,0000.52,0000.36
2024-02-13 01:11:00,SystemResetWarning,0825.2,5.00,000.00,021.4,020.8,000.0,029.8,023.2,13.3,0000.0,0002.54,0000.64,0000.44
2024-02-13 01:12:00,SystemResetWarning,0825.2,4.99,000.00,021.4,020.8,000.0,029.8,023.2,13.4,0000.0,0001.89,0000.73,0000.55
2024-02-13 01:13:00,SystemResetWarning,0825.3,5.00,000.00,021.4,020.8,000.0,029.8,023.2,13.5,0000.0,0001.91,0000.80,0000.64
2024-02-13 01:14:00,SystemResetWarning,0825.3,5.01,000.00,021.4,020.8,000.0,029.8,023.2,13.4,0000.0,0002.13,0000.94,0000.75
2024-02-13 01:15:00,SystemResetWarning,0825.3,5.01,000.00,021.4,020.8,000.0,029.8,023.2,13.4,0000.0,0002.23,0001.03,0000.84
2024-02-13 01:16:00,SystemResetWarning,0825.2,5.00,000.00,021.4,020.8,000.0,029.8,023.2,13.1,0000.0,0002.72,0001.09,0000.90
2024-02-13 01:17:00,SystemResetWarning,0825.3,4.99,000.00,021.4,020.8,000.0,029.8,023.2,13.1,0000.0,0003.07,0001.16,0000.96
2024-02-13 01:18:00,SystemResetWarning,0825.3,5.00,000.00,021.4,020.8,000.0,029.8,023.2,13.2,0000.0,0003.24,0001.27,0001.03
2024-02-13 01:19:00,SystemResetWarning,0825.3,4.99,000.00,021.4,020.8,000.0,029.8,023.3,13.3,0000.0,0003.09,0001.33,0001.11
2024-02-13 01:20:00,SystemResetWarning,0825.3,5.00,000.00,021.4,020.8,000.0,029.8,023.3,13.4,0000.0,0003.22,0001.43,0001.20
2024-02-13 01:21:00,SystemResetWarning,0825.3,5.02,000.00,021.4,020.9,000.0,029.8,023.3,13.3,0000.0,0003.16,0001.51,0001.25
2024-02-13 01:22:00,SystemResetWarning,0825.3,4.99,000.00,021.4,020.9,000.0,029.8,023.3,13.2,0000.0,0002.69,0001.47,0001.24
2024-02-13 01:23:00,SystemResetWarning,0825.3,5.00,000.00,021.5,020.9,000.0,029.8,023.3,13.2,0000.0,0002.66,0001.43,0001.18
2024-02-13 01:24:00,SystemResetWarning,0825.3,4.99,000.00,021.5,020.9,000.0,029.8,023.3,13.2,0000.0,0002.69,0001.42,0001.15
2024-02-13 01:25:00,SystemResetWarning,0825.4,4.99,000.00,021.5,020.9,000.0,029.8,023.3,13.1,0000.0,0002.59,0001.38,0001.13
2024-02-13 01:26:00,SystemResetWarning,0825.3,5.01,000.00,021.5,020.9,000.0,029.8,023.3,13.1,0000.0,0002.62,0001.39,0001.13
2024-02-13 01:27:00,SystemResetWarning,0825.3,5.00,000.00,021.5,020.9,000.0,029.8,023.3,12.9,0000.0,0002.24,0001.42,0001.18
2024-02-13 01:28:00,SystemResetWarning,0825.3,5.00,000.00,021.5,020.9,000.0,029.8,023.3,13.4,0000.0,0002.01,0001.46,0001.22
2024-02-13 01:29:00,SystemResetWarning,0825.3,5.00,000.00,021.5,020.9,000.0,029.8,023.3,13.4,0000.0,0002.01,0001.48,0001.26
2024-02-13 01:30:00,SystemResetWarning,0825.3,5.00,000.00,021.5,020.9,000.0,029.9,023.3,13.3,0000.0,0002.37,0001.54,0001.29
2024-02-13 01:31:00,SystemResetWarning,0825.3,4.99,000.00,021.5,020.9,000.0,029.9,023.3,13.4,0000.0,0002.55,0001.61,0001.32
2024-02-13 01:32:00,SystemResetWarning,0825.3,5.00,000.00,021.5,020.9,000.0,029.9,023.3,13.2,0000.0,0002.56,0001.61,0001.33
2024-02-13 01:33:00,SystemResetWarning,0825.3,5.01,000.00,021.5,020.9,000.0,029.9,023.3,12.7,0000.0,0002.62,0001.66,0001.37
2024-02-13 01:34:00,SystemResetWarning,0825.4,5.01,000.00,021.5,020.9,000.0,029.9,023.3,12.8,0000.0,0002.73,0001.75,0001.47
2024-02-13 01:35:00,SystemResetWarning,0825.3,5.00,000.00,021.5,020.9,000.0,029.9,023.3,12.7,0000.0,0002.97,0001.93,0001.63
2024-02-13 01:36:00,SystemResetWarning,0825.3,4.99,000.00,021.5,020.9,000.0,029.9,023.3,12.7,0000.0,0003.26,0002.07,0001.74
2024-02-13 01:37:00,SystemResetWarning,0825.4,4.99,000.00,021.5,020.9,000.0,029.9,023.3,12.8,0000.0,0003.53,0002.24,0001.90
2024-02-13 01:38:00,SystemResetWarning,0825.4,5.00,000.00,021.5,020.9,000.0,029.9,023.3,12.8,0000.0,0003.75,0002.41,0002.05
2024-02-13 01:39:00,SystemResetWarning,0825.3,5.00,000.00,021.5,020.9,000.0,029.9,023.3,12.7,0000.0,0003.95,0002.52,0002.12
2024-02-13 01:40:00,SystemResetWarning,0825.3,5.01,000.00,021.5,020.9,000.0,029.9,023.3,12.4,0000.0,0003.93,0002.52,0002.12
2024-02-13 01:41:00,SystemResetWarning,0825.4,5.01,000.00,021.5,020.9,000.0,029.9,023.3,12.6,0000.0,0005.22,0002.55,0002.15
2024-02-13 01:42:00,SystemResetWarning,0825.3,4.99,000.00,021.5,020.9,000.0,029.9,023.3,12.7,0000.0,0005.29,0002.54,0002.15
2024-02-13 01:43:00,SystemResetWarning,0825.3,5.00,000.00,021.5,020.9,000.0,029.9,023.3,12.9,0000.0,0005.37,0002.59,0002.19
2024-02-13 01:44:00,SystemResetWarning,0825.3,5.00,000.00,021.5,020.9,000.0,029.9,023.3,12.6,0000.0,0005.51,0002.67,0002.23
2024-02-13 01:45:00,SystemResetWarning,0825.3,4.99,000.00,021.5,020.9,000.0,029.9,023.3,12.7,0000.0,0005.58,0002.70,0002.23
2024-02-13 01:46:00,SystemResetWarning,0825.3,5.00,000.00,021.5,020.9,000.0,029.8,023.3,13.0,0000.0,0005.47,0002.60,0002.11
2024-02-13 01:47:00,SystemResetWarning,0825.3,5.00,000.00,021.5,020.9,000.0,029.8,023.2,13.2,0000.0,0005.11,0002.38,0001.94
2024-02-13 01:48:00,SystemResetWarning,0825.3,5.00,000.00,021.5,020.9,000.0,029.8,023.2,13.2,0000.0,0004.77,0002.19,0001.77
2024-02-13 01:49:00,SystemResetWarning,0825.4,4.99,000.00,021.5,020.9,000.0,029.8,023.2,13.5,0000.0,0004.52,0001.99,0001.58
2024-02-13 01:50:00,SystemResetWarning,0825.4,5.00,000.00,021.5,020.9,000.0,029.8,023.2,13.6,0000.0,0004.20,0001.81,0001.46
2024-02-13 01:51:00,SystemResetWarning,0825.4,5.00,000.00,021.5,020.9,000.0,029.8,023.2,13.2,0000.0,0004.08,0001.73,0001.41
2024-02-13 01:52:00,SystemResetWarning,0825.3,5.00,000.00,021.5,020.8,000.0,029.8,023.2,13.0,0000.0,0002.78,0001.62,0001.32
2024-02-13 01:53:00,SystemResetWarning,0825.4,5.00,000.00,021.4,020.8,000.0,029.8,023.2,13.1,0000.0,0002.12,0001.53,0001.27
2024-02-13 01:54:00,SystemResetWarning,0825.4,5.00,000.00,021.4,020.8,000.0,029.8,023.2,13.2,0000.0,0002.07,0001.47,0001.19
2024-02-13 01:55:00,SystemResetWarning,0825.4,5.01,000.00,021.4,020.8,000.0,029.8,023.2,13.4,0000.0,0002.15,0001.41,0001.12
2024-02-13 01:56:00,SystemResetWarning,0825.4,5.01,000.00,021.4,020.8,000.0,029.8,023.2,13.6,0000.0,0002.69,0001.38,0001.10
2024-02-13 01:57:00,SystemResetWarning,0825.3,4.99,000.00,021.4,020.8,000.0,029.8,023.2,13.7,0000.0,0002.65,0001.38,0001.11
2024-02-13 01:58:00,SystemResetWarning,0825.4,4.99,000.00,021.4,020.8,000.0,029.8,023.2,13.6,0000.0,0002.61,0001.38,0001.11
2024-02-13 01:59:00,SystemResetWarning,0825.4,5.00,000.00,021.4,020.8,000.0,029.8,023.2,13.5,0000.0,0002.65,0001.37,0001.10
